Hourly Weather Garissa

Today, 26 September, Saturday

Time Temperature Precipitation Wind Pressure Humidity
00:00 +26°C° 0 mm 7 mps 746 mmHg 69%
01:00 +26°C° 0 mm 6 mps 746 mmHg 72%
02:00 +24°C° 0 mm 6 mps 745 mmHg 75%
03:00 +25°C° 0 mm 5 mps 745 mmHg 79%
04:00 +25°C° 0.1 mm 5 mps 745 mmHg 79%
05:00 +25°C° 0.1 mm 4 mps 746 mmHg 79%
06:00 +25°C° 0.1 mm 3 mps 746 mmHg 79%
07:00 +27°C° 0 mm 4 mps 747 mmHg 71%
08:00 +28°C° 0 mm 6 mps 747 mmHg 62%
09:00 +30°C° 0 mm 7 mps 748 mmHg 54%
10:00 +32°C° 0 mm 7 mps 747 mmHg 48%
11:00 +34°C° 0 mm 7 mps 746 mmHg 41%
12:00 +35°C° 0 mm 7 mps 745 mmHg 35%
13:00 +36°C° 0 mm 7 mps 744 mmHg 34%
14:00 +36°C° 0 mm 7 mps 743 mmHg 34%
15:00 +38°C° 0 mm 8 mps 742 mmHg 33%
16:00 +37°C° 0 mm 8 mps 742 mmHg 36%
17:00 +35°C° 0 mm 8 mps 742 mmHg 39%
18:00 +34°C° 0 mm 8 mps 742 mmHg 41%
19:00 +33°C° 0 mm 8 mps 743 mmHg 45%
20:00 +32°C° 0 mm 7 mps 744 mmHg 48%
21:00 +30°C° 0 mm 7 mps 744 mmHg 52%
22:00 +29°C° 0 mm 7 mps 744 mmHg 59%
23:00 +28°C° 0 mm 7 mps 744 mmHg 66%

Tomorrow, 27 September, Sunday

Time Temperature Precipitation Wind Pressure Humidity
00:00 +27°C° 0 mm 7 mps 745 mmHg 72%
01:00 +26°C° 0 mm 6 mps 744 mmHg 76%
02:00 +26°C° 0 mm 5 mps 744 mmHg 79%
03:00 +25°C° 0 mm 4 mps 744 mmHg 82%
04:00 +25°C° 0 mm 4 mps 744 mmHg 84%
05:00 +25°C° 0 mm 3 mps 745 mmHg 85%
06:00 +25°C° 0 mm 3 mps 745 mmHg 87%
07:00 +26°C° 0 mm 3 mps 745 mmHg 78%
08:00 +28°C° 0 mm 4 mps 746 mmHg 69%
09:00 +30°C° 0 mm 5 mps 747 mmHg 60%
10:00 +32°C° 0 mm 5 mps 746 mmHg 55%
11:00 +33°C° 0 mm 5 mps 745 mmHg 50%
12:00 +34°C° 0 mm 5 mps 745 mmHg 45%
13:00 +35°C° 0 mm 5 mps 744 mmHg 42%
14:00 +36°C° 0 mm 5 mps 743 mmHg 39%
15:00 +37°C° 0 mm 5 mps 742 mmHg 36%
16:00 +36°C° 0 mm 6 mps 742 mmHg 39%
17:00 +35°C° 0 mm 7 mps 742 mmHg 42%
18:00 +34°C° 0 mm 8 mps 742 mmHg 46%
19:00 +33°C° 0 mm 8 mps 742 mmHg 49%
20:00 +32°C° 0 mm 7 mps 743 mmHg 52%
21:00 +30°C° 0 mm 6 mps 744 mmHg 55%
22:00 +30°C° 0 mm 6 mps 744 mmHg 58%
23:00 +29°C° 0 mm 6 mps 744 mmHg 62%

Day after tomorrow, 28 September, Monday

Time Temperature Precipitation Wind Pressure Humidity
00:00 +28°C° 0 mm 6 mps 744 mmHg 65%
01:00 +27°C° 0 mm 6 mps 744 mmHg 69%
02:00 +27°C° 0 mm 5 mps 744 mmHg 72%
03:00 +26°C° 0 mm 5 mps 744 mmHg 76%
04:00 +26°C° 0 mm 5 mps 744 mmHg 79%
05:00 +25°C° 0 mm 4 mps 744 mmHg 81%
06:00 +25°C° 0 mm 4 mps 745 mmHg 84%
07:00 +27°C° 0 mm 5 mps 745 mmHg 76%
08:00 +28°C° 0 mm 5 mps 746 mmHg 69%
09:00 +30°C° 0 mm 6 mps 746 mmHg 61%
10:00 +33°C° 0 mm 6 mps 746 mmHg 54%
11:00 +34°C° 0 mm 6 mps 745 mmHg 47%
12:00 +36°C° 0 mm 6 mps 745 mmHg 40%
13:00 +38°C° 0 mm 6 mps 744 mmHg 36%
14:00 +39°C° 0 mm 6 mps 743 mmHg 32%
15:00 +40°C° 0 mm 6 mps 742 mmHg 28%
16:00 +40°C° 0 mm 6 mps 742 mmHg 30%
17:00 +39°C° 0 mm 7 mps 742 mmHg 32%
18:00 +38°C° 0 mm 7 mps 742 mmHg 34%
19:00 +35°C° 0 mm 8 mps 743 mmHg 43%
20:00 +33°C° 0 mm 8 mps 743 mmHg 52%
21:00 +31°C° 0 mm 9 mps 744 mmHg 61%
22:00 +29°C° 0 mm 8 mps 744 mmHg 64%
23:00 +28°C° 0 mm 8 mps 744 mmHg 68%

29 September, Tuesday

Time Temperature Precipitation Wind Pressure Humidity
00:00 +27°C° 0 mm 7 mps 745 mmHg 72%
01:00 +27°C° 0 mm 7 mps 744 mmHg 74%
02:00 +27°C° 0 mm 6 mps 744 mmHg 75%
03:00 +27°C° 0 mm 6 mps 744 mmHg 77%
04:00 +27°C° 0 mm 6 mps 744 mmHg 77%
05:00 +27°C° 0 mm 6 mps 745 mmHg 77%
06:00 +27°C° 0 mm 5 mps 745 mmHg 77%
07:00 +28°C° 0 mm 5 mps 746 mmHg 72%
08:00 +29°C° 0 mm 5 mps 746 mmHg 67%
09:00 +30°C° 0 mm 5 mps 746 mmHg 63%
10:00 +32°C° 0 mm 5 mps 746 mmHg 58%
11:00 +33°C° 0 mm 5 mps 745 mmHg 53%
12:00 +34°C° 0 mm 5 mps 745 mmHg 48%
13:00 +35°C° 0 mm 6 mps 744 mmHg 44%
14:00 +36°C° 0 mm 6 mps 743 mmHg 40%
15:00 +39°C° 0 mm 6 mps 741 mmHg 36%
16:00 +38°C° 0 mm 6 mps 742 mmHg 38%
17:00 +36°C° 0 mm 6 mps 742 mmHg 40%
18:00 +35°C° 0 mm 6 mps 742 mmHg 43%
19:00 +34°C° 0 mm 7 mps 742 mmHg 48%
20:00 +32°C° 0 mm 8 mps 743 mmHg 53%
21:00 +31°C° 0 mm 9 mps 744 mmHg 59%
22:00 +29°C° 0 mm 8 mps 744 mmHg 63%
23:00 +28°C° 0 mm 8 mps 744 mmHg 68%

30 September, Wednesday

Time Temperature Precipitation Wind Pressure Humidity
00:00 +27°C° 0 mm 7 mps 744 mmHg 72%
01:00 +27°C° 0 mm 7 mps 744 mmHg 73%
02:00 +26°C° 0 mm 7 mps 744 mmHg 74%
03:00 +26°C° 0 mm 6 mps 743 mmHg 76%
04:00 +26°C° 0 mm 6 mps 744 mmHg 75%
05:00 +26°C° 0 mm 6 mps 744 mmHg 75%
06:00 +26°C° 0 mm 5 mps 745 mmHg 74%
07:00 +27°C° 0 mm 6 mps 745 mmHg 68%
08:00 +29°C° 0 mm 7 mps 745 mmHg 61%
09:00 +31°C° 0 mm 8 mps 746 mmHg 54%
10:00 +33°C° 0 mm 8 mps 745 mmHg 47%
11:00 +35°C° 0 mm 8 mps 744 mmHg 41%
12:00 +38°C° 0 mm 8 mps 744 mmHg 34%
13:00 +38°C° 0 mm 8 mps 743 mmHg 32%
14:00 +39°C° 0 mm 8 mps 742 mmHg 31%
15:00 +39°C° 0 mm 8 mps 741 mmHg 30%
16:00 +38°C° 0 mm 8 mps 741 mmHg 32%
17:00 +38°C° 0 mm 8 mps 741 mmHg 34%
18:00 +37°C° 0 mm 8 mps 741 mmHg 37%
19:00 +34°C° 0 mm 9 mps 742 mmHg 42%
20:00 +32°C° 0 mm 9 mps 742 mmHg 47%
21:00 +29°C° 0 mm 9 mps 743 mmHg 53%
22:00 +29°C° 0 mm 8 mps 743 mmHg 57%
23:00 +28°C° 0 mm 8 mps 744 mmHg 62%

1 October, Thursday

Time Temperature Precipitation Wind Pressure Humidity
00:00 +27°C° 0 mm 7 mps 744 mmHg 66%
01:00 +27°C° 0 mm 7 mps 744 mmHg 70%
02:00 +26°C° 0 mm 6 mps 744 mmHg 73%
03:00 +26°C° 0 mm 5 mps 743 mmHg 77%
04:00 +26°C° 0 mm 5 mps 744 mmHg 78%
05:00 +26°C° 0 mm 4 mps 744 mmHg 80%
06:00 +26°C° 0 mm 4 mps 744 mmHg 81%
07:00 +27°C° 0 mm 5 mps 745 mmHg 72%
08:00 +29°C° 0 mm 6 mps 745 mmHg 64%
09:00 +32°C° 0 mm 6 mps 746 mmHg 55%
10:00 +33°C° 0 mm 6 mps 745 mmHg 51%
11:00 +34°C° 0 mm 6 mps 745 mmHg 47%
12:00 +35°C° 0 mm 6 mps 744 mmHg 44%
13:00 +35°C° 0 mm 6 mps 743 mmHg 42%
14:00 +36°C° 0 mm 7 mps 742 mmHg 40%
15:00 +38°C° 0 mm 7 mps 741 mmHg 38%
16:00 +36°C° 0 mm 7 mps 741 mmHg 39%
17:00 +35°C° 0 mm 7 mps 741 mmHg 41%
18:00 +35°C° 0 mm 7 mps 741 mmHg 42%
19:00 +34°C° 0 mm 8 mps 742 mmHg 46%
20:00 +33°C° 0 mm 8 mps 743 mmHg 49%
21:00 +31°C° 0 mm 8 mps 744 mmHg 52%
22:00 +29°C° 0 mm 8 mps 744 mmHg 58%
23:00 +28°C° 0 mm 7 mps 744 mmHg 63%
Show more